Time,TemperatureF,DewpointF,PressureIn,WindDirection,WindDirectionDegrees,WindSpeedMPH,WindSpeedGustMPH,Humidity,HourlyPrecipIn,Conditions,Clouds,dailyrainin,SoftwareType,DateUTC
2013-09-06 00:02:00,60.7,56.2,0.00,NW,315,1.1,1.1,85,0.00,,,0.00,WUHU216HW,2013-09-06 07:02:00,
2013-09-06 00:07:00,60.8,56.0,0.00,North,0,0.4,1.8,84,0.00,,,0.00,WUHU216HW,2013-09-06 07:07:00,
2013-09-06 00:12:00,60.8,56.3,0.00,NNW,338,0.0,3.8,85,0.00,,,0.00,WUHU216HW,2013-09-06 07:12:00,
2013-09-06 00:17:00,60.5,56.0,0.00,NW,315,1.3,3.8,85,0.00,,,0.00,WUHU216HW,2013-09-06 07:17:00,
2013-09-06 00:22:00,60.5,56.0,0.00,North,0,2.0,2.2,85,0.00,,,0.00,WUHU216HW,2013-09-06 07:22:00,
2013-09-06 00:27:00,60.8,56.3,0.00,NNW,338,1.8,2.7,85,0.00,,,0.00,WUHU216HW,2013-09-06 07:27:00,
2013-09-06 00:32:00,60.8,56.0,0.00,NW,315,2.5,2.7,84,0.00,,,0.00,WUHU216HW,2013-09-06 07:32:00,
2013-09-06 00:37:00,61.0,55.9,0.00,NW,315,0.2,3.1,83,0.00,,,0.00,WUHU216HW,2013-09-06 07:37:00,
2013-09-06 00:42:00,61.0,55.9,0.00,NW,315,3.4,3.6,83,0.00,,,0.00,WUHU216HW,2013-09-06 07:42:00,
2013-09-06 00:47:00,61.0,55.9,0.00,NNW,338,1.8,3.6,83,0.00,,,0.00,WUHU216HW,2013-09-06 07:47:00,
2013-09-06 00:52:00,61.2,56.1,0.00,NNW,338,1.1,2.5,83,0.00,,,0.00,WUHU216HW,2013-09-06 07:52:00,
2013-09-06 00:57:00,61.2,55.7,0.00,NNW,338,2.7,3.4,82,0.00,,,0.00,WUHU216HW,2013-09-06 07:57:00,
2013-09-06 01:02:00,61.4,56.2,0.00,NNW,338,0.4,4.5,83,0.00,,,0.00,WUHU216HW,2013-09-06 08:02:00,
2013-09-06 01:07:00,61.2,55.7,0.00,NW,315,0.0,4.5,82,0.00,,,0.00,WUHU216HW,2013-09-06 08:07:00,
2013-09-06 01:12:00,61.2,55.7,0.00,NW,315,0.0,2.7,82,0.00,,,0.00,WUHU216HW,2013-09-06 08:12:00,
2013-09-06 01:17:00,61.0,55.9,0.00,North,0,0.2,1.1,83,0.00,,,0.00,WUHU216HW,2013-09-06 08:17:00,
2013-09-06 01:22:00,60.8,55.7,0.00,North,0,0.0,1.1,83,0.00,,,0.00,WUHU216HW,2013-09-06 08:22:00,
2013-09-06 01:27:00,60.7,55.5,0.00,NNE,23,0.0,1.1,83,0.00,,,0.00,WUHU216HW,2013-09-06 08:27:00,
2013-09-06 01:32:00,60.7,55.5,0.00,NW,315,0.4,0.7,83,0.00,,,0.00,WUHU216HW,2013-09-06 08:32:00,
2013-09-06 01:37:00,60.7,55.5,0.00,NW,315,0.0,1.1,83,0.00,,,0.00,WUHU216HW,2013-09-06 08:37:00,
2013-09-06 01:42:00,60.7,55.5,0.00,NNW,338,0.9,1.6,83,0.00,,,0.00,WUHU216HW,2013-09-06 08:42:00,
2013-09-06 01:47:00,60.8,55.7,0.00,North,0,0.9,2.5,83,0.00,,,0.00,WUHU216HW,2013-09-06 08:47:00,
2013-09-06 01:52:00,60.8,55.4,0.00,NW,315,1.8,2.5,82,0.00,,,0.00,WUHU216HW,2013-09-06 08:52:00,
2013-09-06 01:57:00,60.8,55.4,0.00,NNW,338,0.4,2.5,82,0.00,,,0.00,WUHU216HW,2013-09-06 08:57:00,
2013-09-06 02:02:00,60.8,55.7,0.00,NNW,338,0.4,2.5,83,0.00,,,0.00,WUHU216HW,2013-09-06 09:02:00,
2013-09-06 02:07:00,60.5,55.6,0.00,NW,315,0.9,2.5,84,0.00,,,0.00,WUHU216HW,2013-09-06 09:07:00,
2013-09-06 02:12:00,60.5,55.6,0.00,North,0,0.0,2.5,84,0.00,,,0.00,WUHU216HW,2013-09-06 09:12:00,
2013-09-06 02:17:00,60.5,55.6,0.00,NNW,338,1.1,1.8,84,0.00,,,0.00,WUHU216HW,2013-09-06 09:17:00,
2013-09-06 02:22:00,60.5,55.6,0.00,North,0,0.0,1.1,84,0.00,,,0.00,WUHU216HW,2013-09-06 09:22:00,
2013-09-06 02:27:00,60.5,55.6,0.00,North,0,0.4,0.9,84,0.00,,,0.00,WUHU216HW,2013-09-06 09:27:00,
2013-09-06 02:32:00,60.5,55.6,0.00,North,0,0.7,0.7,84,0.00,,,0.00,WUHU216HW,2013-09-06 09:32:00,
2013-09-06 02:37:00,60.5,55.6,0.00,NNW,338,0.0,1.6,84,0.00,,,0.00,WUHU216HW,2013-09-06 09:37:00,
2013-09-06 02:42:00,60.7,55.8,0.00,NW,315,1.8,1.8,84,0.00,,,0.00,WUHU216HW,2013-09-06 09:42:00,
2013-09-06 02:47:00,60.8,56.0,0.00,NNW,338,0.2,1.8,84,0.00,,,0.00,WUHU216HW,2013-09-06 09:47:00,
2013-09-06 02:52:00,60.8,56.0,0.00,NW,315,1.1,2.0,84,0.00,,,0.00,WUHU216HW,2013-09-06 09:52:00,
2013-09-06 02:57:00,60.8,56.0,0.00,NNW,338,0.7,2.0,84,0.00,,,0.00,WUHU216HW,2013-09-06 09:57:00,
2013-09-06 03:02:00,60.7,56.2,0.00,NNE,23,0.2,1.1,85,0.00,,,0.00,WUHU216HW,2013-09-06 10:02:00,
2013-09-06 03:07:00,60.5,56.0,0.00,NW,315,0.7,1.8,85,0.00,,,0.00,WUHU216HW,2013-09-06 10:07:00,
2013-09-06 03:12:00,60.3,55.8,0.00,West,270,0.9,1.8,85,0.00,,,0.00,WUHU216HW,2013-09-06 10:12:00,
2013-09-06 03:17:00,60.1,55.6,0.00,West,270,0.4,1.1,85,0.00,,,0.00,WUHU216HW,2013-09-06 10:17:00,
2013-09-06 03:22:00,60.1,56.3,0.00,NW,315,0.4,1.1,87,0.00,,,0.00,WUHU216HW,2013-09-06 10:22:00,
2013-09-06 03:27:00,60.1,56.3,0.00,North,0,0.2,1.6,87,0.00,,,0.00,WUHU216HW,2013-09-06 10:27:00,
2013-09-06 03:32:00,60.1,56.3,0.00,NNW,338,0.4,1.6,87,0.00,,,0.00,WUHU216HW,2013-09-06 10:32:00,
2013-09-06 03:37:00,60.1,56.3,0.00,NNW,338,0.0,2.5,87,0.00,,,0.00,WUHU216HW,2013-09-06 10:37:00,
2013-09-06 03:42:00,60.1,56.3,0.00,WNW,293,0.2,2.5,87,0.00,,,0.00,WUHU216HW,2013-09-06 10:42:00,
2013-09-06 03:47:00,60.1,56.3,0.00,WNW,293,0.0,2.5,87,0.00,,,0.00,WUHU216HW,2013-09-06 10:47:00,
2013-09-06 03:52:00,60.1,56.0,0.00,WNW,293,0.0,0.0,86,0.00,,,0.00,WUHU216HW,2013-09-06 10:52:00,
2013-09-06 03:57:00,60.1,56.3,0.00,NW,315,0.0,0.0,87,0.00,,,0.00,WUHU216HW,2013-09-06 10:57:00,
2013-09-06 04:02:00,59.9,56.1,0.00,NW,315,0.0,0.0,87,0.00,,,0.00,WUHU216HW,2013-09-06 11:02:00,
2013-09-06 04:07:00,59.9,56.1,0.00,NW,315,0.0,0.0,87,0.00,,,0.00,WUHU216HW,2013-09-06 11:07:00,
2013-09-06 04:12:00,59.9,56.1,0.00,NW,315,0.0,0.0,87,0.00,,,0.00,WUHU216HW,2013-09-06 11:12:00,
2013-09-06 04:17:00,59.9,56.1,0.00,NW,315,0.0,0.0,87,0.00,,,0.00,WUHU216HW,2013-09-06 11:17:00,
2013-09-06 04:22:00,59.9,56.4,0.00,NW,315,0.0,0.2,88,0.00,,,0.00,WUHU216HW,2013-09-06 11:22:00,
2013-09-06 04:27:00,59.9,56.4,0.00,NW,315,0.0,0.2,88,0.00,,,0.00,WUHU216HW,2013-09-06 11:27:00,
2013-09-06 04:32:00,59.9,56.7,0.00,NW,315,0.4,0.4,89,0.00,,,0.00,WUHU216HW,2013-09-06 11:32:00,
2013-09-06 04:37:00,59.9,56.7,0.00,NW,315,0.2,0.4,89,0.00,,,0.00,WUHU216HW,2013-09-06 11:37:00,
2013-09-06 07:24:00,59.8,56.5,0.00,NNW,338,0.0,0.0,89,0.00,,,0.00,WUHU216HW,2013-09-06 14:24:00,
2013-09-06 07:29:00,59.8,56.5,0.00,NNW,338,0.0,0.0,89,0.00,,,0.00,WUHU216HW,2013-09-06 14:29:00,
2013-09-06 07:34:00,59.8,56.5,0.00,SSE,158,0.4,0.7,89,0.00,,,0.00,WUHU216HW,2013-09-06 14:34:00,
2013-09-06 07:39:00,59.9,56.7,0.00,ESE,113,0.2,1.3,89,0.00,,,0.00,WUHU216HW,2013-09-06 14:39:00,
2013-09-06 07:44:00,59.8,56.5,0.00,ESE,113,0.0,1.3,89,0.00,,,0.00,WUHU216HW,2013-09-06 14:44:00,
2013-09-06 07:49:00,59.8,56.5,0.00,ESE,113,0.0,0.2,89,0.00,,,0.00,WUHU216HW,2013-09-06 14:49:00,
2013-09-06 07:54:00,59.9,56.7,0.00,SSE,158,0.4,0.7,89,0.00,,,0.00,WUHU216HW,2013-09-06 14:54:00,
2013-09-06 07:59:00,59.9,56.7,0.00,SSE,158,0.0,0.7,89,0.00,,,0.00,WUHU216HW,2013-09-06 14:59:00,
2013-09-06 08:04:00,59.9,56.7,0.00,SSE,158,0.0,0.4,89,0.00,,,0.00,WUHU216HW,2013-09-06 15:04:00,
2013-09-06 08:09:00,59.9,57.1,0.00,SSE,158,0.0,0.4,90,0.00,,,0.00,WUHU216HW,2013-09-06 15:09:00,
2013-09-06 08:14:00,60.1,56.9,0.00,SSE,158,1.6,1.6,89,0.00,,,0.00,WUHU216HW,2013-09-06 15:14:00,
2013-09-06 08:19:00,60.1,56.9,0.00,SE,135,0.7,1.8,89,0.00,,,0.00,WUHU216HW,2013-09-06 15:19:00,
2013-09-06 08:24:00,60.1,57.2,0.00,SE,135,0.0,1.8,90,0.00,,,0.00,WUHU216HW,2013-09-06 15:24:00,
2013-09-06 08:29:00,60.1,57.2,0.00,SE,135,0.0,0.0,90,0.00,,,0.00,WUHU216HW,2013-09-06 15:29:00,
2013-09-06 08:34:00,60.1,57.2,0.00,SE,135,0.2,0.2,90,0.00,,,0.00,WUHU216HW,2013-09-06 15:34:00,
2013-09-06 08:39:00,60.1,56.9,0.00,SE,135,0.0,0.2,89,0.00,,,0.00,WUHU216HW,2013-09-06 15:39:00,
2013-09-06 08:44:00,60.3,57.4,0.00,SE,135,0.0,0.2,90,0.00,,,0.00,WUHU216HW,2013-09-06 15:44:00,
2013-09-06 08:49:00,60.5,57.6,0.00,SE,135,0.0,0.2,90,0.00,,,0.00,WUHU216HW,2013-09-06 15:49:00,
2013-09-06 08:54:00,60.5,57.6,0.00,SE,135,0.0,0.2,90,0.00,,,0.00,WUHU216HW,2013-09-06 15:54:00,
2013-09-06 08:59:00,60.7,57.8,0.00,SE,135,0.0,0.2,90,0.00,,,0.00,WUHU216HW,2013-09-06 15:59:00,
2013-09-06 09:04:00,60.7,57.8,0.00,SE,135,0.0,0.0,90,0.00,,,0.00,WUHU216HW,2013-09-06 16:04:00,
2013-09-06 09:09:00,60.7,57.8,0.00,SE,135,0.0,0.0,90,0.00,,,0.00,WUHU216HW,2013-09-06 16:09:00,
2013-09-06 09:14:00,60.7,57.8,0.00,SE,135,0.7,0.7,90,0.00,,,0.00,WUHU216HW,2013-09-06 16:14:00,
2013-09-06 09:19:00,60.7,57.8,0.00,SE,135,0.0,0.7,90,0.00,,,0.00,WUHU216HW,2013-09-06 16:19:00,
2013-09-06 09:24:00,60.8,58.0,0.00,SE,135,0.0,0.2,90,0.00,,,0.00,WUHU216HW,2013-09-06 16:24:00,
2013-09-06 09:29:00,60.8,58.0,0.00,SE,135,0.0,0.2,90,0.00,,,0.00,WUHU216HW,2013-09-06 16:29:00,
2013-09-06 09:34:00,61.0,58.1,0.00,SE,135,0.0,0.0,90,0.00,,,0.00,WUHU216HW,2013-09-06 16:34:00,
2013-09-06 09:39:00,61.0,58.1,0.00,SE,135,0.0,0.0,90,0.00,,,0.00,WUHU216HW,2013-09-06 16:39:00,
2013-09-06 09:44:00,61.4,58.1,0.00,SSE,158,0.4,0.4,89,0.00,,,0.00,WUHU216HW,2013-09-06 16:44:00,
2013-09-06 09:49:00,61.6,58.3,0.00,SSE,158,1.1,1.1,89,0.00,,,0.00,WUHU216HW,2013-09-06 16:49:00,
2013-09-06 09:54:00,61.9,58.7,0.00,SSE,158,0.2,1.1,89,0.00,,,0.00,WUHU216HW,2013-09-06 16:54:00,
2013-09-06 09:59:00,62.3,59.0,0.00,SSE,158,0.0,1.1,89,0.00,,,0.00,WUHU216HW,2013-09-06 16:59:00,
2013-09-06 10:04:00,62.5,59.6,0.00,SSE,158,0.7,1.1,90,0.00,,,0.00,WUHU216HW,2013-09-06 17:04:00,
2013-09-06 10:09:00,62.3,59.0,0.00,SSE,158,0.0,1.1,89,0.00,,,0.00,WUHU216HW,2013-09-06 17:09:00,
2013-09-06 10:14:00,62.6,59.4,0.00,SSE,158,0.4,0.7,89,0.00,,,0.00,WUHU216HW,2013-09-06 17:14:00,
2013-09-06 10:19:00,62.8,59.6,0.00,SSE,158,0.0,0.4,89,0.00,,,0.00,WUHU216HW,2013-09-06 17:19:00,
2013-09-06 10:24:00,63.0,59.1,0.00,West,270,0.7,0.7,87,0.00,,,0.00,WUHU216HW,2013-09-06 17:24:00,
2013-09-06 10:29:00,63.4,59.5,0.00,NW,315,0.0,1.3,87,0.00,,,0.00,WUHU216HW,2013-09-06 17:29:00,
2013-09-06 10:34:00,63.7,60.1,0.00,South,180,0.0,1.8,88,0.00,,,0.00,WUHU216HW,2013-09-06 17:34:00,
2013-09-06 10:39:00,64.3,60.4,0.00,ENE,68,0.0,1.8,87,0.00,,,0.00,WUHU216HW,2013-09-06 17:39:00,
2013-09-06 10:44:00,64.6,60.0,0.00,NNW,338,2.7,2.7,85,0.00,,,0.00,WUHU216HW,2013-09-06 17:44:00,
2013-09-06 10:49:00,65.0,60.0,0.00,NW,315,4.0,4.7,84,0.00,,,0.00,WUHU216HW,2013-09-06 17:49:00,
2013-09-06 10:54:00,65.3,60.8,0.00,NW,315,3.1,4.7,85,0.00,,,0.00,WUHU216HW,2013-09-06 17:54:00,
2013-09-06 10:59:00,65.0,59.7,0.00,NW,315,0.0,6.7,83,0.00,,,0.00,WUHU216HW,2013-09-06 17:59:00,
2013-09-06 11:04:00,65.0,60.0,0.00,NNW,338,0.4,6.7,84,0.00,,,0.00,WUHU216HW,2013-09-06 18:04:00,
2013-09-06 11:09:00,65.2,58.9,0.00,NW,315,4.0,4.9,80,0.00,,,0.00,WUHU216HW,2013-09-06 18:09:00,
2013-09-06 11:14:00,65.2,59.9,0.00,WNW,293,0.4,4.9,83,0.00,,,0.00,WUHU216HW,2013-09-06 18:14:00,
2013-09-06 11:18:00,65.3,59.4,0.00,NNW,338,2.5,4.7,81,0.00,,,0.00,WUHU216HW,2013-09-06 18:18:00,
2013-09-06 11:23:00,65.7,60.0,0.00,WNW,293,2.5,4.7,82,0.00,,,0.00,WUHU216HW,2013-09-06 18:23:00,
2013-09-06 11:28:00,66.2,60.3,0.00,NNW,338,3.1,4.7,81,0.00,,,0.00,WUHU216HW,2013-09-06 18:28:00,
2013-09-06 11:34:00,66.6,59.1,0.00,NNW,338,2.0,4.7,77,0.00,,,0.00,WUHU216HW,2013-09-06 18:34:00,
2013-09-06 11:38:00,66.1,59.8,0.00,WNW,293,2.7,4.7,80,0.00,,,0.00,WUHU216HW,2013-09-06 18:38:00,
2013-09-06 11:43:00,65.9,60.0,0.00,West,270,0.7,4.0,81,0.00,,,0.00,WUHU216HW,2013-09-06 18:43:00,
2013-09-06 11:48:00,65.9,58.9,0.00,NNW,338,1.8,4.3,78,0.00,,,0.00,WUHU216HW,2013-09-06 18:48:00,
2013-09-06 11:54:00,65.5,59.2,0.00,NNW,338,1.8,4.3,80,0.00,,,0.00,WUHU216HW,2013-09-06 18:54:00,
2013-09-06 11:58:00,65.3,59.4,0.00,NNW,338,2.5,3.4,81,0.00,,,0.00,WUHU216HW,2013-09-06 18:58:00,
2013-09-06 12:03:00,65.5,59.2,0.00,NNW,338,2.5,3.1,80,0.00,,,0.00,WUHU216HW,2013-09-06 19:03:00,
2013-09-06 12:08:00,65.3,58.7,0.00,NNW,338,1.8,4.5,79,0.00,,,0.00,WUHU216HW,2013-09-06 19:08:00,
2013-09-06 12:13:00,65.2,58.9,0.00,NW,315,0.7,4.9,80,0.00,,,0.00,WUHU216HW,2013-09-06 19:13:00,
2013-09-06 12:18:00,65.0,58.7,0.00,NNW,338,0.9,4.9,80,0.00,,,0.00,WUHU216HW,2013-09-06 19:18:00,
2013-09-06 12:23:00,65.0,58.7,0.00,NNW,338,0.0,2.7,80,0.00,,,0.00,WUHU216HW,2013-09-06 19:23:00,
2013-09-06 12:28:00,65.2,58.9,0.00,WNW,293,1.6,2.5,80,0.00,,,0.00,WUHU216HW,2013-09-06 19:28:00,
2013-09-06 12:33:00,65.3,59.0,0.00,NNW,338,0.0,1.6,80,0.00,,,0.00,WUHU216HW,2013-09-06 19:33:00,
2013-09-06 12:38:00,65.5,59.2,0.00,North,0,0.4,1.3,80,0.00,,,0.00,WUHU216HW,2013-09-06 19:38:00,
2013-09-06 12:43:00,65.3,59.0,0.00,NNW,338,0.2,1.1,80,0.00,,,0.00,WUHU216HW,2013-09-06 19:43:00,
2013-09-06 12:48:00,65.3,59.0,0.00,NNW,338,1.1,1.8,80,0.00,,,0.00,WUHU216HW,2013-09-06 19:48:00,
2013-09-06 12:53:00,65.2,58.5,0.00,NNW,338,0.7,1.8,79,0.00,,,0.00,WUHU216HW,2013-09-06 19:53:00,
2013-09-06 12:58:00,65.2,58.2,0.00,North,0,2.0,2.5,78,0.00,,,0.00,WUHU216HW,2013-09-06 19:58:00,
2013-09-06 13:03:00,65.2,58.5,0.00,NW,315,0.9,2.9,79,0.00,,,0.00,WUHU216HW,2013-09-06 20:03:00,
2013-09-06 13:08:00,65.0,58.3,0.00,West,270,1.1,4.0,79,0.00,,,0.00,WUHU216HW,2013-09-06 20:08:00,
2013-09-06 13:13:00,64.8,58.2,0.00,NNW,338,0.7,4.0,79,0.00,,,0.00,WUHU216HW,2013-09-06 20:13:00,
2013-09-06 13:18:00,64.6,58.0,0.00,NNE,23,1.8,4.0,79,0.00,,,0.00,WUHU216HW,2013-09-06 20:18:00,
2013-09-06 13:23:00,64.8,58.5,0.00,NNW,338,1.1,3.4,80,0.00,,,0.00,WUHU216HW,2013-09-06 20:23:00,
2013-09-06 13:28:00,64.6,58.0,0.00,NW,315,0.4,3.4,79,0.00,,,0.00,WUHU216HW,2013-09-06 20:28:00,
2013-09-06 13:33:00,64.6,58.0,0.00,WNW,293,2.0,2.9,79,0.00,,,0.00,WUHU216HW,2013-09-06 20:33:00,
2013-09-06 13:38:00,64.8,58.2,0.00,West,270,1.1,2.9,79,0.00,,,0.00,WUHU216HW,2013-09-06 20:38:00,
2013-09-06 13:43:00,64.6,58.0,0.00,NW,315,0.0,3.4,79,0.00,,,0.00,WUHU216HW,2013-09-06 20:43:00,
2013-09-06 13:48:00,65.0,58.0,0.00,North,0,1.8,4.5,78,0.00,,,0.00,WUHU216HW,2013-09-06 20:48:00,
2013-09-06 13:53:00,65.2,58.5,0.00,NNW,338,0.9,4.5,79,0.00,,,0.00,WUHU216HW,2013-09-06 20:53:00,
2013-09-06 13:58:00,65.5,58.5,0.00,WNW,293,1.6,2.0,78,0.00,,,0.00,WUHU216HW,2013-09-06 20:58:00,
2013-09-06 14:03:00,65.7,58.7,0.00,NW,315,0.4,2.0,78,0.00,,,0.00,WUHU216HW,2013-09-06 21:03:00,
2013-09-06 14:08:00,66.1,59.1,0.00,NNE,23,0.0,2.0,78,0.00,,,0.00,WUHU216HW,2013-09-06 21:08:00,
2013-09-06 14:13:00,66.2,57.7,0.00,NW,315,2.2,2.2,74,0.00,,,0.00,WUHU216HW,2013-09-06 21:13:00,
2013-09-06 14:18:00,66.2,57.7,0.00,NW,315,0.4,2.2,74,0.00,,,0.00,WUHU216HW,2013-09-06 21:18:00,
2013-09-06 14:23:00,66.2,57.3,0.00,NNW,338,1.3,1.8,73,0.00,,,0.00,WUHU216HW,2013-09-06 21:23:00,
2013-09-06 14:28:00,66.4,57.1,0.00,North,0,0.7,3.1,72,0.00,,,0.00,WUHU216HW,2013-09-06 21:28:00,
2013-09-06 14:33:00,66.6,57.2,0.00,NW,315,4.5,5.6,72,0.00,,,0.00,WUHU216HW,2013-09-06 21:33:00,
2013-09-06 14:38:00,66.6,57.7,0.00,North,0,0.7,5.6,73,0.00,,,0.00,WUHU216HW,2013-09-06 21:38:00,
2013-09-06 14:43:00,66.8,56.7,0.00,NW,315,2.5,3.4,70,0.00,,,0.00,WUHU216HW,2013-09-06 21:43:00,
2013-09-06 14:48:00,66.8,57.1,0.00,WNW,293,0.9,3.4,71,0.00,,,0.00,WUHU216HW,2013-09-06 21:48:00,
2013-09-06 14:53:00,67.0,57.6,0.00,North,0,0.0,2.9,72,0.00,,,0.00,WUHU216HW,2013-09-06 21:53:00,
2013-09-06 14:58:00,67.1,57.8,0.00,NNW,338,0.4,3.6,72,0.00,,,0.00,WUHU216HW,2013-09-06 21:58:00,
2013-09-06 15:03:00,67.0,56.9,0.00,NW,315,2.0,4.9,70,0.00,,,0.00,WUHU216HW,2013-09-06 22:03:00,
2013-09-06 15:08:00,67.0,56.9,0.00,North,0,0.4,4.9,70,0.00,,,0.00,WUHU216HW,2013-09-06 22:08:00,
2013-09-06 15:13:00,67.1,57.1,0.00,NNE,23,0.9,3.8,70,0.00,,,0.00,WUHU216HW,2013-09-06 22:13:00,
2013-09-06 15:18:00,67.1,57.1,0.00,WNW,293,1.8,2.7,70,0.00,,,0.00,WUHU216HW,2013-09-06 22:18:00,
2013-09-06 15:23:00,67.0,56.9,0.00,NNW,338,1.1,6.7,70,0.00,,,0.00,WUHU216HW,2013-09-06 22:23:00,
2013-09-06 15:28:00,67.0,57.2,0.00,NW,315,0.9,6.7,71,0.00,,,0.00,WUHU216HW,2013-09-06 22:28:00,
2013-09-06 15:33:00,67.0,57.6,0.00,WNW,293,0.7,3.8,72,0.00,,,0.00,WUHU216HW,2013-09-06 22:33:00,
2013-09-06 15:38:00,67.0,57.6,0.00,NNW,338,1.1,2.9,72,0.00,,,0.00,WUHU216HW,2013-09-06 22:38:00,
2013-09-06 15:43:00,67.0,58.1,0.00,NNW,338,1.1,2.2,73,0.00,,,0.00,WUHU216HW,2013-09-06 22:43:00,
2013-09-06 15:48:00,67.0,57.6,0.00,North,0,1.6,2.2,72,0.00,,,0.00,WUHU216HW,2013-09-06 22:48:00,
2013-09-06 15:53:00,67.0,57.6,0.00,North,0,1.6,3.4,72,0.00,,,0.00,WUHU216HW,2013-09-06 22:53:00,
2013-09-06 15:58:00,66.8,57.4,0.00,NW,315,0.7,4.7,72,0.00,,,0.00,WUHU216HW,2013-09-06 22:58:00,
2013-09-06 16:03:00,66.8,57.4,0.00,NW,315,3.6,4.7,72,0.00,,,0.00,WUHU216HW,2013-09-06 23:03:00,
2013-09-06 16:08:00,66.8,57.1,0.00,NNW,338,1.1,3.6,71,0.00,,,0.00,WUHU216HW,2013-09-06 23:08:00,
2013-09-06 16:13:00,66.8,57.1,0.00,NW,315,0.7,2.9,71,0.00,,,0.00,WUHU216HW,2013-09-06 23:13:00,
2013-09-06 16:18:00,66.8,57.1,0.00,NNW,338,1.3,3.1,71,0.00,,,0.00,WUHU216HW,2013-09-06 23:18:00,
2013-09-06 16:23:00,66.8,57.1,0.00,NNW,338,0.9,3.4,71,0.00,,,0.00,WUHU216HW,2013-09-06 23:23:00,
2013-09-06 16:28:00,66.8,57.1,0.00,WNW,293,1.6,3.8,71,0.00,,,0.00,WUHU216HW,2013-09-06 23:28:00,
2013-09-06 16:33:00,67.0,57.6,0.00,NW,315,3.4,3.8,72,0.00,,,0.00,WUHU216HW,2013-09-06 23:33:00,
2013-09-06 16:38:00,67.0,56.9,0.00,NNW,338,1.8,6.9,70,0.00,,,0.00,WUHU216HW,2013-09-06 23:38:00,
2013-09-06 16:43:00,67.1,57.1,0.00,NW,315,0.4,6.9,70,0.00,,,0.00,WUHU216HW,2013-09-06 23:43:00,
2013-09-06 16:48:00,67.3,57.2,0.00,NW,315,4.0,6.0,70,0.00,,,0.00,WUHU216HW,2013-09-06 23:48:00,
2013-09-06 16:53:00,67.3,57.2,0.00,NW,315,1.8,6.0,70,0.00,,,0.00,WUHU216HW,2013-09-06 23:53:00,
2013-09-06 16:58:00,67.3,56.8,0.00,WNW,293,4.9,6.3,69,0.00,,,0.00,WUHU216HW,2013-09-06 23:58:00,
2013-09-06 17:03:00,67.3,56.8,0.00,West,270,6.3,6.3,69,0.00,,,0.00,WUHU216HW,2013-09-07 00:03:00,
2013-09-06 17:08:00,67.1,57.1,0.00,WNW,293,1.1,6.3,70,0.00,,,0.00,WUHU216HW,2013-09-07 00:08:00,
2013-09-06 17:13:00,67.1,57.1,0.00,NNW,338,6.0,6.0,70,0.00,,,0.00,WUHU216HW,2013-09-07 00:13:00,
2013-09-06 17:18:00,67.0,56.9,0.00,NNW,338,2.5,6.0,70,0.00,,,0.00,WUHU216HW,2013-09-07 00:18:00,
2013-09-06 17:23:00,67.0,56.9,0.00,NW,315,5.4,5.4,70,0.00,,,0.00,WUHU216HW,2013-09-07 00:23:00,
2013-09-06 17:28:00,66.8,57.1,0.00,NNW,338,4.7,5.4,71,0.00,,,0.00,WUHU216HW,2013-09-07 00:28:00,
2013-09-06 17:33:00,66.8,57.1,0.00,NW,315,1.8,5.4,71,0.00,,,0.00,WUHU216HW,2013-09-07 00:33:00,
2013-09-06 17:38:00,66.8,57.1,0.00,West,270,3.1,4.9,71,0.00,,,0.00,WUHU216HW,2013-09-07 00:38:00,
2013-09-06 17:43:00,66.8,57.1,0.00,NNW,338,3.1,4.9,71,0.00,,,0.00,WUHU216HW,2013-09-07 00:43:00,
2013-09-06 17:48:00,66.8,57.1,0.00,NW,315,1.8,4.7,71,0.00,,,0.00,WUHU216HW,2013-09-07 00:48:00,
2013-09-06 17:53:00,66.8,56.7,0.00,WNW,293,3.8,5.4,70,0.00,,,0.00,WUHU216HW,2013-09-07 00:53:00,
2013-09-06 17:58:00,67.0,56.9,0.00,NNW,338,3.4,5.4,70,0.00,,,0.00,WUHU216HW,2013-09-07 00:58:00,
2013-09-06 18:03:00,67.3,56.4,0.00,NW,315,5.1,6.5,68,0.00,,,0.00,WUHU216HW,2013-09-07 01:03:00,
2013-09-06 18:08:00,67.5,56.6,0.00,NNW,338,0.9,6.5,68,0.00,,,0.00,WUHU216HW,2013-09-07 01:08:00,
2013-09-06 18:13:00,67.5,57.0,0.00,NNW,338,0.9,5.1,69,0.00,,,0.00,WUHU216HW,2013-09-07 01:13:00,
2013-09-06 18:18:00,67.3,57.2,0.00,NW,315,0.2,3.8,70,0.00,,,0.00,WUHU216HW,2013-09-07 01:18:00,
2013-09-06 18:23:00,67.1,57.1,0.00,NW,315,2.7,3.8,70,0.00,,,0.00,WUHU216HW,2013-09-07 01:23:00,
2013-09-06 18:28:00,67.0,56.9,0.00,SSW,203,0.9,4.7,70,0.00,,,0.00,WUHU216HW,2013-09-07 01:28:00,
2013-09-06 18:33:00,67.0,56.9,0.00,NNW,338,1.1,4.7,70,0.00,,,0.00,WUHU216HW,2013-09-07 01:33:00,
2013-09-06 18:38:00,67.0,56.9,0.00,North,0,0.9,2.9,70,0.00,,,0.00,WUHU216HW,2013-09-07 01:38:00,
2013-09-06 18:43:00,66.8,56.7,0.00,WNW,293,1.3,4.5,70,0.00,,,0.00,WUHU216HW,2013-09-07 01:43:00,
2013-09-06 18:48:00,66.8,56.7,0.00,NNW,338,2.2,4.5,70,0.00,,,0.00,WUHU216HW,2013-09-07 01:48:00,
2013-09-06 18:53:00,66.6,56.9,0.00,WNW,293,0.4,3.8,71,0.00,,,0.00,WUHU216HW,2013-09-07 01:53:00,
2013-09-06 18:58:00,66.4,56.7,0.00,WNW,293,1.1,3.8,71,0.00,,,0.00,WUHU216HW,2013-09-07 01:58:00,
2013-09-06 19:03:00,66.4,57.1,0.00,NW,315,1.3,2.9,72,0.00,,,0.00,WUHU216HW,2013-09-07 02:03:00,
2013-09-06 19:09:00,66.2,56.9,0.00,West,270,0.4,3.6,72,0.00,,,0.00,WUHU216HW,2013-09-07 02:09:00,
2013-09-06 19:14:00,66.2,56.9,0.00,NNW,338,1.1,3.6,72,0.00,,,0.00,WUHU216HW,2013-09-07 02:14:00,
2013-09-06 19:19:00,66.1,57.2,0.00,NW,315,0.2,2.7,73,0.00,,,0.00,WUHU216HW,2013-09-07 02:19:00,
2013-09-06 19:24:00,66.1,57.2,0.00,WNW,293,1.8,2.7,73,0.00,,,0.00,WUHU216HW,2013-09-07 02:24:00,
2013-09-06 19:29:00,66.1,57.2,0.00,NNW,338,2.9,3.1,73,0.00,,,0.00,WUHU216HW,2013-09-07 02:29:00,
2013-09-06 19:34:00,65.9,57.3,0.00,WSW,248,1.8,3.1,74,0.00,,,0.00,WUHU216HW,2013-09-07 02:34:00,
2013-09-06 19:39:00,65.9,57.3,0.00,NNW,338,1.3,2.9,74,0.00,,,0.00,WUHU216HW,2013-09-07 02:39:00,
2013-09-06 19:44:00,65.9,57.3,0.00,North,0,0.7,2.0,74,0.00,,,0.00,WUHU216HW,2013-09-07 02:44:00,
2013-09-06 19:49:00,65.9,57.3,0.00,NW,315,0.0,2.0,74,0.00,,,0.00,WUHU216HW,2013-09-07 02:49:00,
2013-09-06 19:54:00,65.7,57.5,0.00,WNW,293,1.3,2.2,75,0.00,,,0.00,WUHU216HW,2013-09-07 02:54:00,
2013-09-06 19:59:00,65.7,57.5,0.00,NW,315,0.0,2.2,75,0.00,,,0.00,WUHU216HW,2013-09-07 02:59:00,
2013-09-06 20:04:00,65.7,57.5,0.00,SW,225,1.1,1.8,75,0.00,,,0.00,WUHU216HW,2013-09-07 03:04:00,
2013-09-06 20:09:00,65.5,57.8,0.00,NNW,338,0.4,2.5,76,0.00,,,0.00,WUHU216HW,2013-09-07 03:09:00,
2013-09-06 20:14:00,65.3,57.6,0.00,NW,315,1.1,2.7,76,0.00,,,0.00,WUHU216HW,2013-09-07 03:14:00,
2013-09-06 20:19:00,65.3,57.6,0.00,NNW,338,0.9,2.7,76,0.00,,,0.00,WUHU216HW,2013-09-07 03:19:00,
2013-09-06 20:24:00,65.3,57.6,0.00,NNW,338,0.0,2.0,76,0.00,,,0.00,WUHU216HW,2013-09-07 03:24:00,
2013-09-06 20:29:00,65.2,57.8,0.00,NNW,338,0.0,0.4,77,0.00,,,0.00,WUHU216HW,2013-09-07 03:29:00,
2013-09-06 20:34:00,65.2,58.2,0.00,NNW,338,1.6,1.6,78,0.00,,,0.00,WUHU216HW,2013-09-07 03:34:00,
2013-09-06 20:39:00,65.0,58.0,0.00,North,0,1.1,2.0,78,0.00,,,0.00,WUHU216HW,2013-09-07 03:39:00,
2013-09-06 20:44:00,64.8,57.4,0.00,North,0,0.2,2.0,77,0.00,,,0.00,WUHU216HW,2013-09-07 03:44:00,
2013-09-06 20:49:00,64.8,57.8,0.00,North,0,0.0,0.7,78,0.00,,,0.00,WUHU216HW,2013-09-07 03:49:00,
2013-09-06 20:54:00,64.6,58.0,0.00,North,0,0.0,0.4,79,0.00,,,0.00,WUHU216HW,2013-09-07 03:54:00,
2013-09-06 20:59:00,64.6,58.0,0.00,WNW,293,0.0,1.1,79,0.00,,,0.00,WUHU216HW,2013-09-07 03:59:00,
2013-09-06 21:01:00,64.6,58.0,0.00,WNW,293,0.2,1.1,79,0.00,,,0.00,WUHU216HW,2013-09-07 04:01:00,
2013-09-06 21:02:00,64.6,58.0,0.00,WNW,293,0.4,1.1,79,0.00,,,0.00,WUHU216HW,2013-09-07 04:02:00,
2013-09-06 21:07:00,64.8,57.8,0.00,North,0,0.0,1.1,78,0.00,,,0.00,WUHU216HW,2013-09-07 04:07:00,
2013-09-06 21:12:00,64.8,57.8,0.00,NNW,338,0.0,1.1,78,0.00,,,0.00,WUHU216HW,2013-09-07 04:12:00,
2013-09-06 21:17:00,64.6,57.6,0.00,NNW,338,0.0,0.9,78,0.00,,,0.00,WUHU216HW,2013-09-07 04:17:00,
2013-09-06 21:22:00,64.4,57.4,0.00,NNW,338,0.0,0.0,78,0.00,,,0.00,WUHU216HW,2013-09-07 04:22:00,
2013-09-06 21:27:00,64.1,57.8,0.00,NNW,338,1.1,1.1,80,0.00,,,0.00,WUHU216HW,2013-09-07 04:27:00,
2013-09-06 21:32:00,63.9,57.2,0.00,NW,315,2.0,2.0,79,0.00,,,0.00,WUHU216HW,2013-09-07 04:32:00,
2013-09-06 21:36:00,63.7,57.4,0.00,NE,45,1.1,2.0,80,0.00,,,0.00,WUHU216HW,2013-09-07 04:36:00,
2013-09-06 21:41:00,63.7,57.1,0.00,WNW,293,0.0,2.2,79,0.00,,,0.00,WUHU216HW,2013-09-07 04:41:00,
2013-09-06 21:47:00,63.7,57.1,0.00,NNW,338,0.4,2.2,79,0.00,,,0.00,WUHU216HW,2013-09-07 04:47:00,
2013-09-06 21:52:00,63.4,57.1,0.00,NNW,338,1.1,2.5,80,0.00,,,0.00,WUHU216HW,2013-09-07 04:52:00,
2013-09-06 21:57:00,63.2,57.3,0.00,NNW,338,1.3,2.5,81,0.00,,,0.00,WUHU216HW,2013-09-07 04:57:00,
2013-09-06 22:02:00,63.2,57.3,0.00,NNW,338,1.3,1.6,81,0.00,,,0.00,WUHU216HW,2013-09-07 05:02:00,
2013-09-06 22:07:00,63.0,57.1,0.00,NNW,338,1.1,1.6,81,0.00,,,0.00,WUHU216HW,2013-09-07 05:07:00,
2013-09-06 22:12:00,63.0,57.1,0.00,North,0,0.4,2.0,81,0.00,,,0.00,WUHU216HW,2013-09-07 05:12:00,
2013-09-06 22:16:00,62.6,57.1,0.00,NNW,338,1.1,2.0,82,0.00,,,0.00,WUHU216HW,2013-09-07 05:16:00,
2013-09-06 22:21:00,62.5,56.9,0.00,NW,315,1.8,1.8,82,0.00,,,0.00,WUHU216HW,2013-09-07 05:21:00,
2013-09-06 22:26:00,62.5,57.3,0.00,NNW,338,2.0,2.5,83,0.00,,,0.00,WUHU216HW,2013-09-07 05:26:00,
2013-09-06 22:31:00,62.3,56.7,0.00,NNW,338,1.3,2.5,82,0.00,,,0.00,WUHU216HW,2013-09-07 05:31:00,
2013-09-06 22:36:00,62.5,56.9,0.00,NNW,338,1.3,2.5,82,0.00,,,0.00,WUHU216HW,2013-09-07 05:36:00,
2013-09-06 22:41:00,62.3,56.7,0.00,NW,315,0.0,1.6,82,0.00,,,0.00,WUHU216HW,2013-09-07 05:41:00,
2013-09-06 22:46:00,62.1,56.9,0.00,NNW,338,1.6,1.6,83,0.00,,,0.00,WUHU216HW,2013-09-07 05:46:00,
2013-09-06 22:52:00,61.7,56.5,0.00,NNW,338,1.1,1.8,83,0.00,,,0.00,WUHU216HW,2013-09-07 05:52:00,
2013-09-06 22:56:00,61.6,56.3,0.00,NW,315,1.1,1.8,83,0.00,,,0.00,WUHU216HW,2013-09-07 05:56:00,
2013-09-06 23:01:00,61.4,56.5,0.00,NW,315,2.5,2.5,84,0.00,,,0.00,WUHU216HW,2013-09-07 06:01:00,
2013-09-06 23:06:00,61.4,56.2,0.00,NNW,338,1.6,2.5,83,0.00,,,0.00,WUHU216HW,2013-09-07 06:06:00,
2013-09-06 23:11:00,61.2,56.1,0.00,NW,315,0.9,2.5,83,0.00,,,0.00,WUHU216HW,2013-09-07 06:11:00,
2013-09-06 23:17:00,61.2,56.1,0.00,NNW,338,0.0,1.6,83,0.00,,,0.00,WUHU216HW,2013-09-07 06:17:00,
2013-09-06 23:22:00,61.0,55.9,0.00,NW,315,0.9,1.1,83,0.00,,,0.00,WUHU216HW,2013-09-07 06:22:00,
2013-09-06 23:27:00,60.8,56.0,0.00,NW,315,0.2,1.1,84,0.00,,,0.00,WUHU216HW,2013-09-07 06:27:00,
2013-09-06 23:32:00,60.7,55.8,0.00,NNW,338,1.1,1.8,84,0.00,,,0.00,WUHU216HW,2013-09-07 06:32:00,
2013-09-06 23:37:00,60.5,56.0,0.00,NNW,338,1.1,1.8,85,0.00,,,0.00,WUHU216HW,2013-09-07 06:37:00,
2013-09-06 23:42:00,60.5,56.0,0.00,NNW,338,0.7,1.6,85,0.00,,,0.00,WUHU216HW,2013-09-07 06:42:00,
2013-09-06 23:47:00,60.3,55.8,0.00,NNW,338,1.6,1.8,85,0.00,,,0.00,WUHU216HW,2013-09-07 06:47:00,
2013-09-06 23:52:00,60.3,55.8,0.00,NNW,338,2.5,2.5,85,0.00,,,0.00,WUHU216HW,2013-09-07 06:52:00,
2013-09-06 23:57:00,60.1,55.6,0.00,NNW,338,1.8,2.7,85,0.00,,,0.00,WUHU216HW,2013-09-07 06:57:00,